Weather in Hagatna

Guam     13°28′21″N   144°45′11″E
temp.,
°C
wind,
m/s
gust,
m/s
humid.,
%
clouds,
%
prec.,
mm/h
press.,
hPa
HPBL,
m
20 april, tue
tue2001:00+26ene347190 0.0 1010381
04:00+26ene237458 0.0 1010268
07:00+27ne2377100 0.1 1011330
10:00+29ene4469100 0.7 1012969
13:00+30e446591 0.3 1010941
16:00+29ene556644 0.5 10091006
19:00+27ene557334 0.0 1010585
22:00+27ene4678100 0.0 1012455
21 april, wed
wed2101:00+27ene457722 0.0 1011459
04:00+26ene4574100 0.0 1011418
07:00+27ene3575100 0.0 1012481
10:00+29ene5567100 0.1 10121057
13:00+30ene54636 0.1 1010782
16:00+29ne546285 0.1 1009799
19:00+27ene447017 0.0 1010487
22:00+26ene357325 0.0 1012432
22 april, thu
thu2201:00+26ene3469100 0.0 1011495
04:00+26e3465100 0.0 1010322
07:00+26ese3468100 0.0 1010259
10:00+29e3460100 0.0 10111005
13:00+29ene2260100 0.0 1008868
16:00+29ne2264100 0.1 1008923
19:00+27ene2269100 0.1 1008424
22:00+26ene2274100 0.1 1010319
23 april, fri
fri2301:00+26ene117588 0.0 1009240
04:00+25se117799 0.0 1008160
07:00+25s117481 0.0 1010176
10:00+28wnw1059100 0.0 1010615
13:00+29wnw215916 0.0 10081049
16:00+29w226071 0.0 10071090
19:00+27wsw2266100 0.0 1008523
22:00+26sw2268100 0.1 1010380
24 april, sat
sat2401:00+26sw2271100 0.0 1008314
04:00+26sw2373100 0.0 1008341
07:00+26ssw347284 0.0 1009414
10:00+29sw446199 0.0 1009910
13:00+30wsw445399 0.0 10071065
16:00+29wsw4452100 0.0 1007917
19:00+27sw346292 0.0 1008542
22:00+26ssw3469100 0.0 1010399